Theta_e
320 320 320 320 318 317 318 319 319 320 319 318 318 318 318 318 318 318 318 318 318 318 317 318 317 316 315 313 314 313 313 311 314 321 322 318 316 320 323 324 324 323 322 320 318 318 318 319 321 324 329 331 336 337 337 336 333 336 356 358 344 350 352 353 368 372 372 373 373 371 375 384 375 367 364 363 367 370 369 368 370 368 366 366 360 351 351 354
319 320 321 321 320 318 319 319 320 321 320 319 319 319 319 318 318 317 317 317 317 318 318 317 316 316 314 312 313 312 313 315 323 331 328 316 318 322 325 324 325 324 321 319 317 317 318 321 323 325 330 333 333 332 331 331 333 341 364 360 348 360 356 358 371 368 371 374 374 372 373 380 376 369 364 368 371 370 371 370 371 368 364 362 354 351 352 353
317 318 320 321 321 319 318 319 320 320 319 319 319 320 319 319 318 317 316 316 317 317 318 317 315 314 313 312 313 312 317 324 335 342 332 320 321 322 325 325 324 322 320 319 317 316 319 321 323 326 329 332 330 331 330 330 337 344 364 365 354 362 359 365 374 367 375 380 376 372 370 373 372 368 364 372 375 372 374 371 369 367 364 363 357 353 350 351
314 316 318 319 321 319 319 319 319 321 320 319 319 319 320 319 318 316 316 316 316 317 317 316 314 312 312 312 312 314 322 333 338 335 329 325 325 323 324 324 323 322 320 317 316 317 322 325 326 328 330 333 331 329 330 331 341 344 357 364 355 357 357 366 379 372 374 380 377 372 370 370 368 365 363 370 372 371 375 372 368 367 365 361 356 353 349 350
312 314 315 317 318 317 317 318 319 320 320 318 319 319 319 319 318 315 315 316 316 318 317 315 313 312 312 313 314 317 328 340 335 329 327 326 326 324 323 323 322 322 319 316 317 322 328 330 329 331 331 334 332 331 333 331 340 347 351 355 353 356 355 362 376 375 370 373 375 372 372 372 366 362 361 365 372 376 372 368 366 367 367 359 354 352 350 350
311 312 313 315 316 315 315 316 318 319 318 318 318 318 318 318 318 315 315 316 317 317 316 314 311 312 312 314 319 323 332 339 334 330 327 326 325 324 324 323 323 320 316 316 323 330 335 335 332 333 330 332 333 331 334 329 340 351 348 348 350 352 353 357 369 374 368 366 371 373 371 370 366 362 362 362 374 380 364 361 365 363 363 358 353 352 352 353
311 311 312 314 315 314 313 313 315 317 317 317 317 317 317 317 317 315 315 315 317 317 315 312 311 314 313 318 326 329 334 335 331 330 329 327 325 323 322 322 321 318 315 318 327 333 336 335 334 331 328 330 331 329 330 329 341 349 346 346 348 348 351 355 368 379 375 368 371 372 366 368 369 364 364 363 368 371 359 357 361 357 357 355 355 358 357 357
312 311 311 312 314 314 312 312 313 314 315 316 316 316 316 317 316 315 315 316 317 316 314 311 312 314 314 322 330 334 337 337 331 329 328 326 324 323 321 321 321 316 315 320 327 331 333 333 332 329 329 331 330 329 329 329 336 343 344 345 346 348 353 358 369 379 381 375 374 373 369 371 371 364 362 364 361 363 360 355 356 358 360 359 359 362 358 354
313 312 311 310 313 314 313 312 312 313 314 314 314 314 315 315 315 314 314 316 317 316 313 312 313 314 317 326 334 338 339 337 331 327 326 324 322 321 319 321 319 315 317 323 325 326 329 331 331 327 329 331 330 330 330 330 330 336 341 344 346 349 353 360 368 379 384 379 374 372 370 371 369 361 360 362 359 360 358 353 357 362 363 363 362 359 355 353
313 313 312 311 311 313 314 312 311 312 313 313 313 314 314 315 315 314 315 316 317 316 313 312 313 315 321 330 338 343 339 332 331 328 323 321 318 318 319 322 319 317 319 324 323 324 328 330 329 327 329 332 329 330 331 329 328 329 337 341 347 351 357 362 368 377 381 375 373 367 362 365 367 365 362 358 357 357 356 355 359 362 363 364 361 357 353 352
313 313 313 312 311 312 314 312 310 312 313 313 313 313 314 314 314 314 315 317 317 315 313 313 314 318 325 332 336 340 337 331 332 329 325 322 321 320 323 325 322 320 323 324 323 325 327 326 325 328 332 331 329 331 330 329 328 327 331 338 345 353 358 363 371 377 372 366 375 372 360 359 360 366 365 357 355 356 357 358 359 359 360 360 358 356 355 352
313 313 313 312 312 314 314 312 310 311 312 313 313 312 313 314 313 314 315 317 316 314 312 313 314 319 328 336 337 334 334 332 332 330 329 326 325 325 326 326 325 323 323 322 324 325 327 325 326 328 330 329 329 332 330 330 330 327 332 337 344 349 355 363 368 374 369 362 380 376 354 353 359 366 365 356 354 356 358 360 360 360 359 356 356 357 355 352
313 313 313 313 315 316 314 313 311 311 313 313 312 312 313 313 314 314 316 317 317 313 312 314 315 321 331 341 339 331 330 333 331 330 331 328 327 327 327 327 326 327 324 323 324 325 327 326 327 328 328 329 330 331 329 330 330 329 332 339 347 343 349 362 360 368 368 363 384 365 341 354 371 372 365 356 354 355 358 361 360 360 358 355 357 357 355 353
312 312 312 314 318 318 316 314 312 312 312 313 312 312 313 313 314 315 317 316 316 314 312 314 315 322 336 342 332 331 332 333 330 331 331 329 327 326 326 326 324 325 325 324 325 325 329 327 327 328 328 330 330 331 330 329 330 330 328 336 349 336 342 361 359 368 366 363 382 351 332 353 368 369 364 360 358 354 358 359 358 360 358 356 356 356 356 355
312 313 313 315 317 318 317 315 314 313 313 312 312 312 313 313 315 316 318 315 315 314 312 318 321 323 338 341 328 331 332 330 332 332 331 330 328 325 325 325 322 325 324 325 326 327 329 327 327 328 329 330 329 330 332 329 329 331 322 323 338 334 338 357 361 369 365 363 374 348 338 355 356 358 362 362 361 354 356 358 356 361 359 356 355 355 355 355
313 314 315 316 316 317 317 316 315 313 312 312 312 312 312 314 317 317 317 314 314 314 312 324 327 325 339 341 330 331 329 329 331 330 332 331 328 326 323 324 323 324 323 325 326 326 326 327 328 330 331 330 330 331 330 327 329 336 327 320 333 337 336 348 356 365 365 364 367 351 347 356 352 354 358 361 360 354 356 357 356 361 359 356 354 354 356 354
315 315 315 315 316 317 317 317 316 314 313 312 312 313 314 316 318 316 317 315 316 318 318 325 326 326 338 337 330 333 329 329 330 329 332 330 329 327 323 323 322 322 323 324 324 324 326 327 329 330 333 331 331 331 325 319 321 330 331 326 333 340 337 342 351 359 364 367 365 358 354 356 355 354 356 361 358 353 354 355 357 359 358 356 354 353 354 355
315 315 315 315 317 317 317 318 316 314 313 312 312 315 316 317 316 315 320 322 322 323 324 327 327 329 334 332 333 334 330 329 328 330 330 328 327 325 324 323 322 322 322 323 324 324 326 329 331 332 333 331 330 329 321 318 320 319 323 323 326 337 337 339 346 355 362 363 362 361 357 361 359 351 355 359 357 354 355 355 356 357 356 355 354 354 354 354
315 315 315 316 316 318 318 318 316 314 312 312 315 318 318 317 317 319 322 326 330 328 327 332 335 332 328 332 335 332 329 330 329 330 329 328 326 324 324 322 322 322 321 324 324 324 327 329 329 328 329 330 330 329 324 325 326 321 324 325 323 329 334 347 358 352 353 353 355 361 358 362 358 349 353 358 356 355 354 356 356 355 356 356 356 356 355 355
315 316 316 316 317 318 318 317 315 313 312 314 318 323 325 323 327 329 326 329 335 333 328 332 335 331 326 330 332 329 329 328 329 330 328 327 325 323 325 323 323 322 322 325 325 324 327 327 328 328 329 331 330 329 328 327 330 327 326 325 324 323 325 347 359 350 353 346 345 356 351 353 355 350 352 354 354 354 353 357 357 354 356 357 357 357 356 355
316 316 317 317 318 318 317 316 314 313 312 315 320 329 335 332 331 331 329 331 331 327 329 330 329 328 327 326 327 327 327 326 327 327 326 326 324 324 323 323 322 320 321 323 322 325 327 325 327 329 330 331 328 328 327 326 327 328 327 323 324 323 325 342 349 352 361 341 338 352 338 341 354 348 350 353 350 351 353 356 355 354 356 356 356 356 355 357
317 317 318 318 318 318 316 315 313 313 312 315 321 330 334 332 330 327 326 330 328 325 326 327 325 327 326 325 326 326 327 328 327 326 326 324 322 323 323 322 323 322 322 320 319 322 323 324 327 328 327 327 327 328 325 325 327 327 328 321 320 328 330 340 350 354 353 337 339 348 331 341 363 351 349 353 349 349 351 356 356 353 356 356 355 354 354 362
318 318 318 318 318 316 315 314 313 312 313 315 319 324 327 326 326 324 324 329 329 328 328 328 327 327 326 326 327 326 327 328 328 327 325 322 323 323 324 323 323 324 322 320 320 318 317 322 325 325 325 325 325 326 324 325 326 327 326 317 316 326 322 324 343 351 348 341 341 349 346 355 369 358 351 353 356 356 354 356 357 353 355 356 355 354 353 362
319 319 319 318 316 315 315 313 313 312 313 315 317 322 324 322 322 321 326 331 331 330 331 329 327 326 327 326 325 327 327 328 329 329 324 323 324 323 323 323 321 323 322 322 322 318 317 321 324 324 322 325 325 325 326 323 324 326 326 319 316 323 319 320 342 352 349 347 350 360 350 345 357 357 353 357 359 359 357 358 356 352 355 354 354 355 353 359
319 319 319 317 316 314 313 312 313 315 315 314 317 321 321 322 320 319 327 334 333 332 328 325 326 324 325 326 324 326 326 327 329 329 324 322 323 325 326 325 323 325 325 323 321 320 321 320 322 324 323 324 323 323 326 322 319 318 324 326 320 323 322 320 335 340 330 329 347 353 328 326 349 354 351 355 354 352 352 357 357 353 356 357 355 356 358 358
319 319 318 316 315 312 316 320 319 319 319 318 321 324 323 324 322 320 330 334 330 329 326 324 324 322 324 325 325 325 325 328 328 326 325 323 323 325 325 326 325 326 326 326 325 323 324 323 323 323 324 324 323 322 324 324 316 312 321 327 322 325 325 322 326 327 319 320 339 346 324 322 337 346 351 354 353 353 349 351 356 359 360 360 361 360 364 363
319 319 317 315 313 315 325 332 324 322 327 328 328 328 327 327 324 323 330 329 324 324 322 321 321 321 324 323 325 326 325 328 326 324 326 325 325 325 325 328 328 326 327 324 320 323 326 325 324 324 323 322 322 321 324 326 315 314 325 324 324 328 325 325 322 319 323 324 333 350 344 328 325 336 356 360 358 355 352 351 354 361 364 365 370 369 365 364
318 317 316 314 313 320 329 328 323 326 331 330 329 329 327 326 326 326 327 320 320 322 320 320 320 321 323 323 325 327 327 329 329 326 326 325 325 325 325 328 327 327 329 321 315 320 325 324 323 324 323 321 322 323 325 325 318 320 327 321 324 326 323 330 322 318 327 321 321 339 345 327 321 338 358 360 359 357 357 359 355 363 370 369 376 373 364 362
318 316 315 313 313 320 325 323 324 329 330 330 330 329 328 325 326 329 327 320 318 318 322 321 321 323 323 325 325 325 327 329 330 330 327 323 324 327 327 328 328 326 327 324 320 323 324 324 325 323 323 321 324 327 325 323 321 322 324 323 327 326 328 331 322 324 326 316 316 326 329 324 324 341 350 339 345 357 362 364 363 372 373 366 368 366 359 360
317 315 314 313 313 318 322 322 327 331 330 330 330 328 329 330 330 326 323 322 318 318 322 320 323 326 325 325 325 325 325 327 331 329 326 325 325 325 327 327 326 327 328 325 324 325 323 325 328 326 325 325 325 326 324 322 323 321 325 328 325 328 342 351 351 342 321 317 326 324 325 331 326 337 350 340 347 363 362 364 365 365 362 359 361 358 357 360
316 314 313 314 316 321 325 328 330 330 329 329 329 330 331 333 334 327 322 323 319 319 321 320 323 325 325 326 326 326 325 327 329 327 325 329 327 325 326 326 326 327 329 326 322 326 324 323 328 327 327 327 323 324 324 323 324 322 328 328 320 326 338 347 351 337 313 319 335 326 325 330 320 328 351 353 356 360 359 361 360 357 356 356 359 360 360 363
314 314 314 314 319 325 329 332 332 329 329 329 329 334 337 333 329 327 328 323 319 321 321 322 323 323 325 328 326 325 326 326 328 328 327 328 327 327 326 326 327 321 319 322 320 321 324 322 325 324 327 327 322 324 323 324 327 322 328 325 315 316 320 325 329 321 315 324 330 327 330 328 322 333 351 348 348 352 353 356 357 360 360 358 362 366 365 365
315 314 313 313 319 324 326 329 329 328 328 328 332 339 342 334 330 330 328 322 319 321 323 324 323 324 325 325 326 327 324 326 328 329 327 327 328 328 324 326 328 321 319 320 316 315 320 327 329 321 324 326 322 321 316 319 324 321 323 320 315 316 312 317 325 320 319 324 323 331 335 327 326 339 353 346 343 350 352 352 355 360 361 360 362 363 363 363
319 317 314 314 316 319 324 325 325 326 324 327 340 345 336 334 339 337 328 326 324 322 323 323 322 325 325 324 326 326 323 325 328 329 327 328 326 326 326 325 324 324 323 319 316 315 313 321 331 322 321 324 324 323 320 322 325 322 327 322 318 320 314 315 322 315 314 321 324 328 328 326 324 328 346 350 343 350 352 352 358 358 359 362 359 359 361 360
322 321 318 317 316 319 322 322 322 322 320 330 348 345 333 333 337 330 328 333 328 323 323 323 324 322 321 324 326 326 325 323 327 329 326 326 325 325 329 327 325 325 323 318 319 320 313 317 330 326 323 324 322 324 324 324 321 323 328 321 315 320 319 318 321 317 315 321 325 323 323 334 335 328 343 351 346 352 352 355 362 359 361 363 359 361 361 360
323 323 323 323 323 323 321 320 322 320 323 340 349 339 337 339 334 330 338 338 328 326 323 320 322 319 316 321 325 326 326 324 327 327 323 326 327 326 329 327 325 326 326 325 323 321 315 318 329 330 325 325 323 324 324 321 320 322 319 317 321 324 324 320 319 323 322 319 323 323 321 331 339 335 343 348 346 354 353 356 362 359 360 364 362 360 359 361
324 326 328 329 329 329 323 321 323 321 327 343 346 343 347 344 336 338 344 337 328 331 325 317 319 318 314 316 322 326 325 323 325 324 321 323 325 325 329 329 327 327 330 330 325 323 320 317 328 331 327 328 325 323 326 324 325 322 314 320 328 326 328 324 318 324 327 319 321 324 323 326 326 328 341 349 350 354 355 356 358 358 359 362 364 360 360 364
325 327 331 332 332 332 327 323 323 324 330 341 348 356 353 342 338 337 334 330 328 331 327 319 320 323 318 315 320 327 325 321 322 323 322 321 322 326 330 329 330 328 329 331 327 329 325 317 325 332 327 332 329 324 326 327 327 323 318 327 326 315 317 320 316 318 319 318 323 326 329 329 326 328 335 344 349 353 356 355 354 358 358 359 364 362 361 364
325 331 338 335 333 333 330 326 326 328 334 342 348 354 347 338 338 333 329 329 328 330 329 326 325 326 323 321 322 326 324 320 322 324 322 321 324 328 330 331 332 329 329 332 329 330 329 319 319 329 332 331 330 325 322 323 329 327 321 327 325 319 317 316 318 318 314 319 326 326 326 330 340 350 344 342 350 353 357 357 355 356 358 358 359 362 364 366
328 336 343 336 333 335 331 327 328 331 337 344 349 347 338 333 333 330 329 329 329 331 330 330 329 329 327 327 327 327 326 325 323 323 323 325 328 330 332 332 332 329 329 333 332 333 338 326 318 329 335 329 327 327 325 325 326 324 320 319 320 323 322 318 321 319 318 326 332 329 327 331 351 367 353 347 350 352 359 365 363 362 359 356 355 360 363 364
333 341 342 335 335 336 331 328 332 336 338 342 344 338 334 334 331 330 331 329 329 330 330 330 330 329 329 331 329 329 331 330 328 328 326 328 331 332 331 332 331 332 332 336 336 333 337 333 324 326 328 323 326 331 330 331 329 324 323 320 319 320 319 318 318 318 323 329 333 333 328 333 353 360 354 357 355 352 361 368 369 366 362 359 357 359 361 361
339 345 340 335 334 331 329 333 335 336 336 338 339 335 335 335 330 329 330 329 330 330 330 330 331 332 332 331 330 332 333 332 329 331 329 330 335 333 331 334 331 332 334 337 335 332 341 341 327 323 327 326 330 333 332 330 332 331 327 327 329 324 319 315 314 318 324 324 329 336 329 334 354 360 359 368 360 352 358 366 370 364 360 363 362 359 361 364
343 343 335 331 332 329 330 339 343 338 335 336 336 333 334 332 329 330 331 330 332 330 330 331 331 332 331 330 332 332 331 330 330 332 332 334 336 331 332 335 331 335 339 336 333 334 345 342 326 326 340 338 330 333 335 333 331 330 328 330 330 325 326 324 319 326 330 325 326 331 329 337 352 357 359 362 356 352 355 361 367 364 359 363 363 362 363 363
336 339 334 329 330 328 331 343 347 345 341 337 333 332 332 330 329 332 330 330 332 330 330 331 329 331 332 330 332 332 329 328 329 331 333 334 335 332 333 334 334 337 335 337 337 328 332 339 334 332 336 333 328 331 330 329 330 329 329 332 330 329 331 328 327 333 333 328 329 325 326 340 351 350 354 352 350 352 351 355 364 366 362 363 362 364 365 363
335 339 335 328 328 328 334 339 338 339 338 334 334 333 331 329 329 332 330 329 330 331 330 330 327 327 329 330 333 332 329 328 328 329 329 330 332 331 331 332 335 335 339 350 350 334 332 341 340 331 327 324 324 326 325 326 330 330 329 330 330 332 330 325 329 333 330 332 334 325 325 343 352 351 356 352 351 354 351 356 365 364 361 363 363 364 366 368
339 342 336 333 330 328 331 334 331 334 334 335 341 338 330 331 331 330 330 328 328 330 327 325 325 325 326 328 330 330 331 329 328 328 328 328 329 328 328 332 334 339 350 359 355 345 342 341 342 343 335 328 329 334 335 332 328 325 326 328 328 330 333 330 329 332 338 340 337 334 333 336 342 354 357 353 356 356 350 358 370 367 361 363 365 364 366 368
340 343 338 337 339 334 334 335 333 332 333 337 341 336 329 330 331 328 329 328 327 328 328 324 323 324 325 328 330 328 329 331 329 328 327 326 326 326 326 328 330 337 344 343 344 350 343 332 336 343 336 331 335 338 336 331 325 322 324 325 326 329 332 327 323 332 346 337 330 347 351 335 338 355 352 350 359 357 349 357 374 376 369 367 368 367 367 365
339 340 335 334 342 344 338 337 334 331 332 338 336 330 328 328 328 329 330 329 325 325 327 325 323 324 325 329 329 327 329 332 331 329 327 326 327 326 326 326 327 330 330 325 333 344 338 330 331 330 328 330 331 331 329 326 325 326 324 322 324 326 324 324 330 345 354 336 330 352 358 341 343 354 352 353 359 354 347 353 365 371 368 366 366 366 366 366
335 338 336 334 343 346 334 331 334 330 333 343 341 330 326 326 326 327 327 328 326 323 324 325 323 323 324 326 328 329 328 327 326 328 328 325 326 327 327 328 327 325 322 321 328 333 333 336 337 327 325 329 328 328 328 326 324 323 323 327 329 327 325 328 336 347 351 344 342 353 354 346 347 352 355 358 357 352 351 354 357 363 365 366 367 366 365 367
331 335 337 340 347 350 334 326 331 330 330 339 340 329 323 323 323 324 323 324 325 323 322 323 323 324 323 323 326 325 325 325 324 327 326 324 326 328 327 327 326 324 322 321 326 327 325 333 343 333 323 325 328 328 327 326 325 322 329 340 339 336 339 343 345 348 348 344 345 352 354 352 352 353 354 352 350 351 352 351 353 356 359 363 364 363 362 363
326 326 331 343 354 353 339 326 328 329 327 329 332 326 323 322 321 323 323 321 322 321 321 322 325 327 324 323 324 323 322 324 323 323 323 322 324 326 326 327 325 323 325 322 324 328 324 329 342 334 320 320 326 326 326 326 325 328 334 342 342 344 350 351 352 353 350 344 347 353 353 354 356 355 352 349 348 349 350 350 351 351 352 354 355 358 361 359
327 328 330 343 348 339 331 324 322 326 325 325 326 324 322 321 319 322 324 323 322 322 322 323 326 328 326 323 324 323 322 323 321 321 321 321 322 322 320 324 324 322 325 322 321 328 326 324 331 327 319 322 329 326 324 326 328 333 338 341 345 351 352 351 352 352 350 352 356 354 350 352 355 355 353 351 349 350 350 349 350 351 352 353 353 358 362 361
Wind_Speed
8 7 7 6 6 7 9 9 9 9 9 10 10 11 12 12 13 13 13 13 13 13 13 14 14 14 14 14 14 14 16 15 12 7 6 8 8 9 8 8 8 11 13 14 15 14 14 13 15 16 12 3 3 2 6 8 5 4 3 3 2 2 3 4 6 5 4 4 5 6 5 6 4 4 3 1 1 2 4 3 1 3 2 4 6 9 23 32
8 8 8 7 7 7 9 9 10 9 9 10 11 12 12 13 13 13 13 13 13 13 13 13 13 14 13 12 12 13 16 14 10 7 8 6 6 10 9 8 9 11 13 15 15 10 6 7 10 12 8 3 3 3 2 4 4 4 3 4 3 4 3 4 6 6 5 5 7 6 6 6 5 5 4 3 3 3 5 2 2 4 4 5 7 10 22 29
9 9 9 9 8 8 8 10 10 10 9 10 11 12 13 13 13 13 13 13 13 13 13 13 13 13 11 10 11 12 14 10 5 5 5 4 8 9 8 8 9 11 14 14 13 10 6 9 12 10 5 4 4 3 3 2 4 3 3 4 3 5 4 4 8 10 7 7 9 6 5 5 5 6 4 4 5 4 5 3 3 5 5 7 7 8 17 24
10 9 9 9 9 9 9 10 11 11 10 11 12 12 13 13 13 13 13 13 13 12 12 12 12 11 9 9 10 11 11 5 1 3 2 4 6 7 8 9 11 12 13 12 12 10 10 12 11 6 3 5 5 3 4 2 2 2 4 5 6 5 5 5 9 10 8 10 10 6 6 4 4 5 4 5 6 3 5 5 7 8 8 9 8 7 12 17
10 10 10 10 10 10 10 11 11 12 11 11 12 12 13 13 13 13 13 13 13 12 12 12 11 9 8 9 9 9 7 3 2 5 3 3 4 6 8 10 11 12 10 10 9 8 11 10 5 4 1 4 6 3 4 3 4 3 2 8 9 6 6 6 6 8 8 8 8 8 8 5 4 3 4 7 6 4 5 6 8 9 8 9 9 8 10 12
11 11 10 10 10 10 10 11 11 12 11 12 12 12 13 12 13 13 13 13 12 11 11 11 9 8 9 9 7 6 2 1 4 5 4 3 3 5 7 9 9 8 8 8 6 7 9 5 3 4 2 2 5 4 5 3 6 5 0 7 9 7 7 6 5 7 8 7 8 9 7 5 7 4 6 8 6 5 6 9 9 9 8 8 9 8 7 9
11 11 11 11 10 10 10 10 11 11 11 11 12 12 12 12 13 13 12 12 11 11 11 10 8 9 9 7 4 3 2 3 6 5 6 4 3 6 6 7 6 6 8 6 3 4 4 4 4 4 2 2 4 5 6 3 9 9 4 6 8 7 8 7 6 6 7 9 8 7 6 8 10 5 5 7 5 3 8 10 10 10 9 7 7 6 5 7
11 11 11 11 11 11 10 10 11 11 11 11 11 12 12 12 12 12 12 11 10 10 9 8 7 9 10 5 1 2 1 4 4 5 7 5 4 6 6 7 5 7 8 6 6 4 2 5 6 3 2 4 5 9 10 7 7 8 7 8 8 7 9 8 6 6 7 6 4 6 7 9 11 7 7 7 4 7 10 10 10 10 8 6 7 8 8 7
12 12 11 11 11 11 10 10 10 11 10 11 11 11 11 11 11 11 11 11 10 9 8 7 7 9 10 5 0 2 2 6 4 4 4 3 5 6 6 6 6 8 7 8 10 6 1 3 6 4 3 4 6 10 10 5 3 5 10 11 9 8 8 9 7 7 7 3 3 4 4 6 8 5 5 7 8 10 10 11 11 10 7 6 7 8 9 9
13 12 12 11 11 12 11 10 10 11 11 10 11 11 10 10 10 10 10 10 8 8 7 6 7 8 7 4 2 2 3 7 4 2 3 2 4 5 6 5 6 9 7 8 8 4 3 5 8 6 2 3 6 10 8 2 1 2 8 9 9 9 7 8 9 7 6 3 4 6 5 3 2 2 2 6 10 11 11 12 10 9 8 7 8 7 9 10
13 13 13 12 12 12 11 10 10 11 11 10 11 10 10 9 9 9 9 8 7 7 6 5 7 7 5 2 3 1 4 7 6 5 5 3 4 6 6 5 5 8 8 6 6 8 9 10 8 4 1 3 7 9 8 3 5 3 6 4 3 7 3 6 10 7 4 3 7 8 3 3 4 2 6 8 11 12 13 13 11 10 8 8 10 9 8 9
14 14 13 13 12 12 11 10 10 11 11 10 10 9 9 9 8 9 8 7 6 5 5 5 5 6 4 3 2 5 7 9 6 6 4 2 1 4 5 5 5 6 8 4 6 12 15 14 9 5 2 3 5 5 6 7 9 7 5 6 2 4 1 4 6 6 6 4 7 8 4 2 2 4 8 10 12 12 13 13 11 9 8 9 10 9 7 9
14 14 13 13 13 11 11 10 10 11 11 10 9 9 8 8 7 8 7 5 5 4 4 4 4 6 3 1 6 6 5 9 8 6 4 2 3 5 5 7 7 7 8 7 9 13 16 16 11 5 3 3 3 3 6 8 6 8 2 7 4 3 2 7 3 5 7 4 7 7 1 5 7 7 8 11 12 12 12 11 10 8 7 8 8 8 7 9
15 14 14 13 12 11 11 10 10 11 10 9 9 8 7 7 7 7 6 4 4 4 3 5 5 3 1 3 7 6 5 8 12 8 5 4 5 7 8 7 8 9 10 11 12 11 13 16 13 6 3 1 3 4 7 7 4 4 2 4 3 4 4 8 3 6 6 2 6 6 1 6 8 7 9 10 13 14 12 11 10 8 7 7 7 8 8 8
15 15 14 13 12 11 10 10 10 10 9 9 8 7 6 6 6 5 4 3 3 3 4 5 4 1 1 5 7 5 3 7 13 11 7 10 9 6 6 6 5 7 8 9 8 9 12 13 8 3 4 2 2 5 6 5 4 2 1 2 2 4 4 6 4 8 9 1 6 6 1 5 6 8 10 9 12 14 12 11 11 9 8 8 7 8 8 8
15 15 14 12 12 11 10 9 9 9 8 7 7 5 5 5 4 3 2 2 3 3 2 3 2 1 1 4 6 4 3 6 10 12 10 13 12 6 6 7 4 5 6 6 6 9 10 7 3 3 3 3 2 3 4 5 5 3 3 3 2 4 3 3 4 8 8 2 4 5 3 2 4 8 9 7 12 13 11 11 12 10 9 8 7 7 7 6
15 14 13 12 11 10 9 9 8 8 7 6 5 3 3 4 2 1 1 1 2 3 2 2 4 2 1 4 5 3 5 7 10 12 12 14 12 8 7 5 3 4 4 6 6 7 6 3 1 2 2 2 2 3 4 5 3 5 2 2 1 4 4 2 4 6 5 4 5 6 4 4 5 7 10 9 12 13 11 12 11 10 9 8 7 7 7 7
15 14 12 11 10 9 8 8 7 6 4 4 2 1 1 2 1 1 1 1 1 2 3 3 3 1 2 4 3 4 5 8 10 10 11 13 10 7 7 5 2 1 1 4 4 3 2 2 1 2 3 3 2 5 1 4 2 5 3 3 2 1 3 4 4 4 7 6 6 5 5 9 7 5 11 11 12 13 12 12 11 10 11 9 7 8 8 8
15 14 12 11 9 8 7 6 5 3 2 1 1 1 1 1 1 1 2 1 1 1 1 2 2 2 1 5 6 5 5 8 9 10 11 9 8 6 5 3 1 3 2 2 3 3 2 1 3 2 4 5 4 4 6 7 4 7 7 3 5 2 3 6 5 5 9 6 5 7 6 9 7 6 11 12 12 11 11 11 9 9 10 9 8 7 8 9
15 13 11 9 8 6 5 4 2 1 1 2 3 1 1 0 2 1 1 1 4 4 1 2 6 2 4 3 2 2 6 7 6 9 12 9 6 4 1 1 2 2 2 3 3 3 2 1 3 4 7 9 9 8 8 7 6 8 4 2 2 2 2 6 7 5 7 7 6 8 7 8 7 9 13 13 10 9 10 11 10 10 9 8 9 9 9 10
14 11 9 7 6 5 4 3 2 3 3 4 3 2 1 1 1 1 2 3 8 9 6 6 7 6 9 7 8 4 5 2 1 4 11 11 6 3 1 1 3 1 4 4 2 2 3 2 7 9 11 12 11 10 9 8 6 5 1 2 3 2 3 7 9 6 6 6 6 6 5 5 6 8 11 12 10 10 12 13 11 11 9 8 9 10 10 7
12 9 7 5 5 4 3 2 3 4 5 5 3 1 3 3 5 1 2 2 7 9 10 9 6 8 12 13 18 12 3 1 3 4 8 9 5 3 1 1 4 4 4 1 0 2 1 5 11 12 11 10 10 10 10 8 6 3 1 2 3 3 2 5 6 3 4 4 5 4 4 4 6 4 8 11 11 9 11 14 14 12 10 8 9 10 8 6
10 7 5 3 3 2 2 3 4 4 6 6 4 4 3 2 3 5 3 1 5 4 6 6 6 7 8 10 14 10 4 3 4 4 8 8 3 5 3 2 4 3 1 3 4 2 2 7 13 12 9 8 9 11 7 5 4 3 1 1 3 4 0 3 6 1 2 3 4 3 3 3 5 2 4 5 2 3 7 11 11 11 11 11 11 11 9 8
8 5 3 2 2 3 3 3 3 2 4 7 9 10 5 5 9 11 5 2 4 4 4 6 6 4 6 7 6 6 3 3 5 5 9 9 3 3 4 4 4 2 3 5 7 6 7 10 9 8 10 9 9 12 5 4 4 4 3 3 4 6 2 4 5 2 1 4 0 6 5 5 5 4 1 4 5 1 4 7 7 6 9 10 10 9 8 8
6 3 1 2 4 5 4 4 3 1 2 8 10 8 4 6 11 9 3 2 3 4 3 4 4 4 9 6 4 5 2 2 4 6 10 10 7 3 2 3 3 3 7 6 6 5 10 12 6 6 9 8 8 10 5 4 3 5 5 6 5 6 7 4 2 3 4 6 3 5 4 5 5 4 1 3 1 3 2 5 8 6 6 7 8 8 5 5
4 1 2 4 6 8 6 4 4 3 1 5 6 9 6 3 5 4 2 4 2 3 1 2 2 4 7 4 4 3 3 3 5 9 12 10 8 5 1 2 0 4 6 4 2 2 7 8 4 7 7 5 3 3 5 3 4 3 6 3 3 4 7 2 4 5 2 4 4 3 5 2 4 3 3 3 2 2 2 2 4 6 7 7 7 7 6 6
3 0 3 6 9 10 6 3 4 3 1 5 11 15 9 4 2 2 3 5 2 1 1 1 0 3 5 5 5 5 2 4 1 7 9 8 6 3 1 3 2 3 3 2 2 3 3 6 5 3 3 2 2 1 6 1 5 4 6 2 2 5 6 1 4 4 3 3 4 3 5 3 1 3 3 2 3 1 2 3 3 4 5 5 7 7 6 7
3 1 4 8 11 9 4 3 3 4 3 11 15 15 8 6 6 2 4 3 1 0 2 2 1 2 3 1 4 3 3 3 2 2 5 5 4 3 1 4 2 4 4 1 3 6 2 4 6 2 2 2 3 5 6 3 3 7 6 1 3 6 5 0 4 2 1 2 5 6 3 4 2 4 1 5 4 3 6 6 4 5 5 6 6 7 7 8
2 2 5 7 11 8 1 1 1 3 9 15 15 15 9 3 4 3 3 2 0 1 0 1 0 2 1 3 1 2 2 0 2 4 3 2 3 3 2 6 3 4 5 4 4 7 4 5 5 2 2 4 6 7 6 4 4 6 3 2 3 2 1 2 4 0 2 3 4 6 1 5 2 5 1 3 3 5 6 5 4 6 6 7 7 7 7 7
2 2 5 7 9 7 2 3 3 7 13 16 14 13 10 4 4 5 2 1 1 2 0 1 1 2 3 3 1 3 2 1 1 2 0 0 0 2 1 2 1 2 4 1 4 7 7 6 4 3 4 6 5 5 4 5 6 4 1 2 5 6 4 4 3 2 3 2 6 6 3 7 1 4 3 3 4 6 4 2 4 4 2 5 8 8 7 6
2 1 5 7 7 5 2 1 3 10 13 14 13 9 8 5 4 4 1 1 1 2 0 1 2 2 5 4 2 3 2 2 1 3 1 1 2 3 3 3 2 2 4 4 4 6 7 6 4 4 5 5 3 2 4 4 2 0 2 4 3 5 5 5 5 4 2 3 7 4 4 9 4 3 5 5 5 6 8 7 7 5 2 2 5 6 6 6
2 1 5 6 7 7 5 1 5 9 11 12 10 5 5 4 2 1 1 1 1 3 3 3 3 3 5 5 4 4 3 2 2 4 5 2 2 2 2 2 2 2 3 3 3 5 6 6 5 4 4 4 3 1 5 6 5 3 2 5 3 3 4 3 4 1 3 5 6 2 6 6 1 5 5 4 3 6 8 8 9 7 5 3 5 7 7 5
3 1 3 7 9 10 8 3 6 9 12 12 7 4 5 4 0 2 2 1 2 3 3 4 5 5 6 4 3 4 4 4 5 5 5 4 3 4 4 5 6 4 1 3 2 4 5 6 4 2 4 3 6 3 2 4 3 2 1 4 4 2 2 2 3 2 2 4 6 2 7 2 3 3 4 3 4 7 7 7 8 8 7 6 5 6 5 4
3 2 2 7 11 13 10 5 5 9 13 11 5 4 5 3 3 3 2 4 3 3 3 6 7 6 7 5 4 5 4 4 6 6 4 4 3 3 4 5 6 5 2 1 2 2 2 7 4 2 4 4 6 6 6 4 1 3 4 6 4 3 3 4 3 2 2 3 4 4 4 3 1 2 4 5 4 5 6 5 7 6 4 4 4 4 5 4
2 2 4 7 12 13 11 7 5 8 9 6 5 4 3 2 4 1 1 4 1 2 3 5 7 6 5 4 4 5 5 3 5 5 4 4 4 4 3 5 7 6 3 1 3 1 2 5 6 4 4 5 6 5 5 5 2 4 2 6 1 4 5 3 3 4 3 2 1 3 0 3 1 3 1 7 6 4 4 5 7 5 1 3 5 5 6 5
1 3 4 8 12 10 7 7 8 7 3 5 5 2 2 4 3 1 2 2 0 2 2 1 3 4 3 2 4 5 5 3 3 4 3 3 3 4 3 3 5 8 6 3 2 1 2 4 6 5 4 2 6 6 5 6 2 2 0 2 4 5 7 3 2 1 4 4 1 1 1 2 2 3 5 5 6 4 4 4 5 5 3 5 4 4 6 6
2 3 4 9 11 5 4 6 9 7 1 6 4 1 3 4 4 3 3 2 1 3 5 1 2 3 3 2 4 5 5 3 3 4 3 2 0 3 3 2 2 6 7 4 1 1 1 4 5 5 7 6 4 2 1 1 3 3 2 4 2 1 3 3 1 3 4 3 2 1 0 3 1 2 3 2 6 5 5 4 3 4 5 5 4 4 5 6
3 4 6 9 8 6 6 7 10 7 3 5 1 3 3 4 4 4 3 3 2 2 4 2 2 2 4 4 5 5 5 2 4 3 1 1 1 2 1 1 3 1 3 4 2 1 2 2 6 2 5 8 5 4 5 7 4 2 4 3 2 2 2 1 2 1 2 1 0 4 3 2 2 3 2 4 7 7 5 4 4 5 6 6 4 4 4 5
2 2 5 3 9 11 9 11 9 5 4 3 1 3 2 4 6 5 3 3 2 3 2 1 0 1 3 2 2 2 4 2 4 3 2 1 1 1 1 1 2 5 5 6 4 2 3 1 5 4 5 6 5 5 4 8 8 3 2 3 1 3 4 2 1 3 2 1 2 2 3 2 4 5 7 8 8 8 7 6 6 7 7 7 6 4 5 5
0 2 4 3 13 14 13 11 5 5 2 1 2 3 3 4 5 6 7 5 1 2 0 1 3 2 1 1 4 2 2 1 1 2 2 2 2 1 2 1 1 4 7 9 6 2 3 3 3 6 5 4 2 3 3 4 6 5 6 5 4 3 0 0 1 2 3 3 3 2 0 4 6 4 7 8 8 9 9 8 7 7 7 7 6 6 6 6
2 2 3 5 15 16 13 7 2 2 1 2 2 3 4 3 2 7 11 8 1 2 1 1 3 2 1 3 5 4 2 1 2 2 2 2 3 1 2 0 2 3 5 7 6 3 1 2 1 4 5 3 2 5 3 3 1 2 3 4 3 3 2 3 3 3 2 4 4 4 2 6 6 3 5 7 7 7 8 8 7 7 7 7 6 7 6 6
3 2 3 11 21 20 11 3 1 2 1 3 3 4 4 2 3 6 9 7 5 4 3 3 4 2 2 3 3 4 4 2 3 4 2 1 2 1 2 2 5 6 5 3 3 1 2 3 2 3 3 3 6 7 4 2 1 4 3 2 1 2 4 4 1 3 3 2 1 4 2 5 6 3 2 5 4 4 6 7 7 6 5 6 5 5 5 5
2 1 4 17 26 19 7 2 2 1 3 5 4 6 4 0 3 5 7 8 6 5 5 4 4 3 4 5 4 5 6 2 3 4 1 1 3 2 2 4 7 6 4 2 3 3 2 3 3 4 5 5 5 5 2 1 2 3 2 3 1 2 3 5 4 2 2 1 1 3 1 4 5 6 3 3 4 3 3 5 7 5 4 5 5 5 5 5
2 2 2 15 23 12 4 1 2 2 4 5 6 7 3 2 3 4 6 7 5 3 4 5 6 4 3 5 5 8 8 4 4 6 4 2 3 4 7 7 6 4 2 2 1 1 1 1 2 3 5 6 8 7 5 6 5 3 4 5 3 3 3 3 1 3 2 2 3 4 1 5 5 4 5 7 7 7 4 2 5 6 5 6 5 5 5 5
0 1 1 7 13 4 1 3 2 2 5 6 5 5 2 2 1 3 6 6 6 4 4 6 9 8 7 6 6 8 10 6 4 7 7 6 5 6 11 10 5 4 1 2 3 3 1 1 3 4 2 1 3 4 4 4 4 3 5 8 8 7 4 3 2 4 2 2 2 4 3 5 5 6 6 7 6 6 6 2 1 2 4 6 5 5 5 5
2 1 2 1 2 2 3 2 1 1 5 6 4 3 4 2 2 4 7 7 9 8 7 8 11 11 11 10 7 8 9 7 5 5 5 7 6 6 9 10 10 10 8 6 5 4 3 1 2 6 5 4 5 6 5 4 3 5 8 10 10 9 5 3 3 2 4 2 1 3 5 2 5 6 4 3 6 3 4 3 2 1 3 5 5 5 4 4
2 2 2 1 2 2 3 4 2 3 3 2 0 4 8 6 5 7 7 7 9 9 7 8 12 11 9 8 5 6 7 5 6 6 5 5 4 6 8 7 9 12 12 10 8 4 4 3 2 3 3 4 6 6 6 4 4 6 9 11 11 11 9 5 1 3 4 4 2 6 5 4 3 5 3 0 4 3 1 1 2 3 3 3 3 3 3 3
2 1 1 1 1 1 2 5 3 0 4 4 3 5 9 10 8 7 6 5 9 10 5 6 12 12 9 7 4 5 7 5 6 6 5 5 5 7 8 5 4 9 10 7 6 4 4 1 4 3 3 5 3 4 7 7 6 8 9 10 11 11 12 7 3 7 6 5 4 7 7 6 5 5 4 3 2 2 2 2 4 4 2 2 3 3 5 5
2 1 2 1 0 3 3 4 3 6 9 7 5 7 8 9 9 8 6 4 6 8 6 6 9 10 10 9 6 4 6 4 4 4 4 6 6 4 5 5 3 6 8 6 4 3 3 1 4 4 4 7 7 8 9 9 9 10 10 12 12 10 9 5 5 7 5 4 3 5 7 5 1 4 6 6 3 3 5 5 4 3 2 2 3 5 6 6
2 1 4 3 3 4 3 4 5 7 8 6 5 6 6 8 8 6 6 7 5 6 6 6 7 7 9 9 7 5 4 2 2 4 3 6 6 3 2 3 3 6 7 4 2 3 3 2 3 4 4 6 7 7 9 9 8 8 10 15 14 8 7 6 2 1 1 3 6 8 8 6 5 6 7 7 6 7 9 8 6 5 2 1 3 6 7 7
3 3 3 2 3 6 5 4 5 5 6 6 5 5 5 7 7 4 4 6 7 6 6 6 6 6 6 8 8 4 6 4 4 7 5 4 5 3 2 3 3 6 6 2 1 3 2 2 3 5 4 5 6 5 8 8 6 7 11 17 15 5 7 7 6 7 4 4 7 8 7 5 6 6 6 7 9 11 10 8 7 6 5 4 4 4 5 6
7 3 3 2 2 6 5 4 7 6 4 5 5 6 7 7 7 5 3 4 6 7 7 6 6 5 5 7 7 6 7 6 7 8 6 6 8 6 6 7 6 4 3 2 2 1 1 1 1 2 1 4 6 4 5 5 6 5 7 13 12 6 8 9 11 13 10 4 5 6 4 3 5 4 6 8 10 9 8 7 6 6 7 7 8 7 5 5
Wind_Direction
340 339 336 339 340 337 336 336 339 345 352 348 344 344 341 342 341 342 340 337 336 332 332 333 337 340 338 334 326 324 322 316 314 292 246 257 244 199 202 236 265 284 288 290 290 300 312 306 304 313 320 295 204 238 185 186 181 157 125 91 126 156 131 154 182 185 158 177 187 187 172 137 161 199 180 113 82 164 114 87 29 50 52 110 148 141 130 134
331 329 326 325 326 325 326 326 330 337 343 340 339 339 337 339 340 343 339 336 335 332 334 335 338 339 336 335 330 327 325 318 312 276 248 247 212 199 213 235 255 279 284 287 290 292 299 295 316 332 337 338 276 261 197 184 157 148 131 102 181 201 155 164 160 159 162 173 183 186 174 158 171 179 160 143 190 174 113 60 40 101 95 119 147 142 134 135
326 323 320 317 317 318 318 318 321 326 331 331 331 333 333 336 340 341 337 336 335 334 335 335 339 339 335 337 333 329 327 326 315 273 250 199 197 204 209 229 249 271 278 280 282 283 295 308 315 325 333 311 267 252 283 237 140 147 116 93 216 199 158 171 155 168 185 161 168 184 173 185 190 167 163 162 166 164 150 148 126 140 146 143 162 166 146 140
325 322 317 313 312 311 311 312 314 317 321 322 324 327 328 332 337 337 336 336 335 336 335 337 341 340 341 337 329 327 330 349 320 274 207 176 195 203 210 233 251 262 272 271 274 288 301 303 302 309 325 295 271 231 259 244 134 138 128 140 196 177 148 186 173 176 180 158 165 165 145 198 209 172 177 148 140 192 201 185 168 163 158 156 171 171 155 140
324 320 316 312 308 307 307 307 308 310 312 315 318 320 323 328 333 333 335 335 335 336 336 340 344 343 346 333 323 324 341 48 274 261 201 188 196 210 223 234 247 258 265 261 270 298 296 290 306 329 299 277 300 303 257 224 124 85 139 155 167 164 153 191 180 159 165 159 149 140 150 181 165 179 200 154 154 219 201 181 173 162 152 154 162 160 161 139
323 319 316 312 307 305 303 303 304 305 308 310 311 313 318 323 328 331 332 334 335 336 338 343 347 346 342 330 322 325 12 100 269 250 211 206 195 220 228 230 243 255 249 248 275 301 297 309 5 315 260 256 292 280 275 258 126 104 290 156 162 172 156 179 178 150 151 146 149 161 168 153 145 190 200 168 196 224 162 156 161 157 149 142 154 165 168 139
322 317 314 311 307 304 302 302 302 301 304 304 306 308 312 319 325 328 329 332 334 337 341 345 348 343 341 337 326 358 83 244 260 233 222 214 209 236 232 226 230 232 231 239 270 279 294 315 298 268 255 303 293 290 322 5 119 124 158 174 176 179 157 161 165 152 145 156 177 166 139 150 171 190 170 181 223 176 140 146 149 151 150 139 151 145 118 117
323 317 311 309 306 304 301 300 300 300 300 300 303 303 308 316 320 323 327 330 333 339 342 346 350 341 345 351 318 25 21 240 220 206 222 216 223 244 229 212 200 206 219 233 244 243 297 293 269 268 329 324 335 336 347 31 99 126 158 179 181 177 158 144 140 147 151 172 172 127 141 174 187 173 153 184 183 135 136 138 142 149 149 136 139 125 109 116
323 319 313 307 303 303 299 298 299 298 298 299 298 298 306 313 316 320 324 327 332 339 340 346 349 343 349 348 98 42 256 207 182 199 212 216 232 231 215 198 186 192 206 239 246 249 283 294 288 308 337 326 346 339 341 28 95 157 165 174 175 167 154 137 134 154 163 182 105 115 196 201 195 170 142 183 159 138 137 134 143 153 150 138 134 128 132 142
320 319 316 310 304 302 298 296 297 297 296 296 294 296 305 310 313 316 318 326 333 336 340 345 343 349 356 350 74 51 225 183 157 131 123 148 202 197 192 184 186 192 210 250 258 270 258 274 295 298 316 339 342 328 326 19 7 194 162 172 169 153 155 146 147 169 172 182 148 153 211 241 235 133 146 196 159 141 137 140 154 155 153 151 141 137 150 157
319 317 315 312 306 302 299 296 295 295 293 292 293 295 303 308 310 313 317 324 330 332 337 337 341 351 2 52 94 239 224 180 154 99 86 94 150 163 165 169 192 202 221 259 293 296 278 282 307 337 16 352 336 315 301 311 332 349 111 114 132 124 139 151 148 172 171 185 177 149 161 314 357 112 180 182 158 148 143 151 167 164 161 157 149 149 162 170
317 315 314 312 308 304 300 295 294 293 291 292 293 295 302 306 307 310 314 322 330 331 327 329 342 348 6 90 186 226 194 184 176 115 91 32 136 177 171 186 209 218 228 246 296 299 302 312 344 21 335 335 337 313 301 316 330 337 84 101 50 74 154 203 154 176 179 185 177 131 84 307 289 210 190 166 157 153 148 160 174 173 170 160 156 155 165 176
315 314 313 311 310 306 300 295 292 290 291 292 291 294 300 304 306 306 311 320 322 322 323 326 335 345 13 157 242 239 202 207 201 148 139 340 312 261 249 234 235 248 248 241 271 297 312 320 339 348 306 338 313 284 314 321 328 320 30 120 134 73 229 233 189 172 187 183 158 135 106 253 255 238 194 163 157 153 153 169 177 178 178 165 163 163 172 178
314 313 311 311 309 305 299 294 290 289 291 291 290 295 300 304 304 303 312 319 315 319 315 313 314 335 41 254 264 291 292 219 191 179 196 229 258 272 267 246 244 251 250 251 271 299 314 322 338 331 297 314 282 306 329 326 326 310 12 95 151 146 216 242 220 162 184 196 130 123 206 241 253 239 201 171 157 158 162 174 180 182 185 173 168 173 181 184
315 313 311 310 307 304 298 293 290 289 289 291 293 300 306 305 302 307 319 318 311 306 305 319 311 299 16 290 280 306 298 189 185 200 222 226 227 247 240 221 231 242 250 263 282 301 307 323 343 314 297 326 327 336 333 328 323 301 117 313 263 154 213 249 231 177 181 185 109 118 223 246 251 224 203 179 159 163 164 173 184 185 192 186 171 180 188 186
314 312 311 309 307 303 295 292 290 290 291 294 300 307 306 299 301 315 317 310 304 294 309 2 2 45 58 290 299 313 247 202 207 216 224 227 224 230 217 207 217 229 256 272 284 296 300 321 332 255 293 321 331 345 345 347 328 324 135 211 224 143 187 255 265 213 185 137 131 167 210 243 249 212 200 185 167 167 167 177 186 186 196 193 172 185 195 187
315 313 313 310 307 300 294 292 288 290 296 298 306 311 298 292 296 299 330 335 308 301 295 334 344 347 243 288 311 293 226 210 216 222 227 223 222 243 226 203 224 224 254 277 281 300 309 321 285 285 331 316 314 71 20 337 308 325 42 144 196 148 164 197 269 247 183 165 193 194 211 247 256 194 185 192 178 170 172 180 186 189 197 197 179 182 195 194
317 317 315 311 305 297 293 290 288 295 300 303 316 333 281 289 295 201 162 121 349 343 319 298 335 20 280 285 266 242 225 206 211 219 219 211 213 238 216 193 222 202 343 321 295 298 302 314 354 338 336 318 331 99 118 257 236 308 302 123 85 128 202 206 226 223 171 184 209 174 209 257 270 189 177 192 185 177 180 182 186 192 196 197 187 185 193 198
318 317 314 310 303 294 288 284 289 295 291 284 158 152 167 305 330 241 188 109 82 99 303 247 177 109 284 235 225 248 227 192 193 200 200 204 215 224 218 213 160 118 80 15 299 262 201 336 11 336 298 278 266 171 196 229 230 272 267 156 128 149 230 224 234 224 162 166 223 186 204 246 243 187 178 189 190 182 181 180 184 194 198 196 193 192 193 198
318 315 313 307 297 289 278 275 276 238 234 178 168 146 121 38 17 323 240 177 212 213 267 214 192 240 298 263 266 215 177 169 168 189 196 197 194 197 241 310 72 97 140 152 252 275 126 156 263 239 247 252 256 241 227 240 244 256 267 78 85 112 235 235 242 242 155 159 231 206 201 235 217 181 179 186 190 185 180 182 189 194 195 198 200 199 195 203
318 316 312 304 293 281 261 253 190 184 195 182 170 114 161 244 81 349 294 242 238 229 244 239 206 249 271 279 293 242 147 144 244 219 208 193 151 137 255 88 95 250 234 180 226 326 100 191 243 230 234 245 257 264 264 268 261 263 294 60 351 316 247 239 226 220 166 168 250 226 191 242 231 186 181 180 180 190 186 182 190 194 195 202 205 206 199 193
321 316 311 301 284 264 239 212 174 188 198 189 173 169 252 229 150 146 310 280 269 224 224 245 228 262 264 265 269 252 135 127 273 288 215 183 128 150 225 98 150 218 249 170 20 349 89 234 247 238 238 251 265 271 278 288 277 273 350 64 311 281 276 280 252 216 142 169 258 238 160 269 269 208 189 186 184 197 191 184 187 188 190 203 209 212 200 164
323 315 307 288 258 229 208 184 168 196 207 198 198 214 253 228 202 310 335 199 296 233 205 231 223 254 266 274 264 231 149 169 215 264 206 164 130 173 152 161 204 237 266 167 179 183 193 239 244 239 244 253 265 272 282 323 306 269 343 72 277 285 13 297 289 303 138 206 228 161 104 311 315 21 184 205 215 197 188 189 188 183 187 197 206 208 197 175
326 316 294 234 183 168 173 154 150 203 225 227 234 234 260 300 290 316 3 137 295 282 222 204 196 233 246 263 252 186 156 190 184 222 198 162 140 163 154 181 198 271 254 203 195 200 228 247 239 227 243 242 254 274 284 50 350 308 291 216 247 294 274 222 251 229 272 307 203 95 51 325 338 44 102 352 356 112 166 184 184 194 199 198 207 210 198 184
334 319 247 171 153 146 136 111 103 59 267 240 246 257 283 309 296 304 30 67 300 301 283 190 178 244 244 242 209 172 149 218 206 194 186 174 161 149 200 196 160 236 250 227 202 219 248 253 233 212 238 230 233 262 241 128 23 325 271 215 204 270 273 241 191 106 38 333 292 103 66 301 326 32 27 339 204 142 89 185 178 179 192 193 205 211 193 173
341 305 159 155 148 133 123 98 79 53 299 250 301 330 315 308 309 273 99 50 317 289 351 138 162 226 238 219 173 127 68 287 240 174 177 194 180 151 223 260 205 237 245 235 206 232 251 257 235 211 218 196 177 255 240 170 66 322 259 194 142 254 268 240 112 97 104 266 272 109 121 241 327 345 266 264 159 109 15 241 192 169 173 184 202 208 191 165
354 171 145 154 148 133 130 128 125 140 204 304 337 341 313 247 232 185 101 40 332 244 148 219 347 181 209 196 149 95 87 269 286 152 183 202 183 128 188 257 322 275 265 21 339 268 269 316 308 236 204 181 124 274 255 157 88 258 256 115 110 253 263 278 95 104 190 230 327 12 106 113 323 280 277 50 63 358 249 222 222 197 185 185 201 209 191 174
7 138 156 158 156 150 139 121 151 191 298 324 330 342 329 224 203 153 88 51 338 98 170 218 246 203 221 160 116 110 207 218 88 203 234 201 171 81 117 243 253 269 280 66 285 277 285 312 291 295 4 259 219 221 228 137 134 251 261 221 241 241 240 238 91 114 244 39 342 317 47 92 254 278 339 105 124 232 233 222 213 216 218 200 204 213 195 185
11 139 160 164 172 179 173 37 267 301 334 339 339 346 349 209 181 79 78 102 98 302 178 128 176 240 272 50 57 254 250 137 139 226 250 187 188 100 160 228 218 272 276 162 216 273 258 236 248 292 310 242 233 236 219 164 204 246 246 251 310 319 271 77 92 117 355 33 278 271 124 116 258 292 272 128 160 211 233 252 239 231 223 199 201 213 206 198
23 143 164 167 176 190 269 287 306 348 352 354 351 350 360 35 87 60 52 131 169 238 250 84 253 190 133 105 271 260 246 274 209 176 34 27 278 63 165 228 150 305 303 226 235 263 266 269 266 247 221 201 213 243 229 206 225 241 93 34 358 358 11 41 60 64 53 339 261 248 151 117 92 289 233 200 210 185 161 164 219 228 205 189 200 206 205 202
19 159 176 174 173 180 211 251 339 355 357 354 349 355 17 31 73 86 92 125 146 251 280 204 245 148 138 149 208 250 230 252 217 142 162 4 26 12 4 359 12 14 348 331 301 290 303 311 289 240 211 193 196 282 284 270 269 13 72 58 12 339 5 15 2 36 92 264 260 234 103 91 97 248 230 228 214 162 140 149 172 177 151 174 185 187 200 197
16 152 181 187 192 196 194 187 348 350 357 356 357 23 56 49 48 110 201 40 73 230 196 180 223 178 158 172 206 227 204 193 202 178 181 165 152 205 197 190 180 44 343 283 305 326 310 282 264 262 240 198 158 317 309 324 354 358 38 62 53 344 3 356 331 337 200 253 264 193 92 83 196 232 225 236 215 171 164 160 157 158 161 158 153 171 193 182
16 24 192 205 218 224 229 281 334 344 351 356 14 57 74 76 331 227 207 251 212 199 170 162 188 170 154 175 229 222 204 212 209 195 186 167 174 226 243 220 181 139 218 244 310 324 313 303 299 306 277 207 148 151 272 304 317 271 198 98 106 93 36 298 289 294 259 281 285 22 78 82 287 269 215 206 209 190 171 154 153 157 159 160 164 170 172 149
9 355 248 229 235 241 244 263 312 328 339 352 39 67 63 90 237 230 200 239 214 164 167 163 165 161 161 186 216 193 192 239 213 180 162 152 173 245 261 245 206 163 145 336 297 241 348 325 304 211 253 217 164 178 184 166 163 223 180 126 120 140 163 244 239 211 242 261 289 348 54 149 188 278 209 150 151 171 153 148 145 141 146 135 117 127 141 149
354 303 280 260 254 251 246 245 268 300 325 2 63 73 91 191 256 289 235 248 215 132 180 161 146 157 187 214 238 201 178 230 217 171 162 171 185 212 218 229 209 166 135 215 247 221 38 301 267 247 239 188 176 199 163 113 41 266 167 98 96 198 169 218 217 182 172 138 311 336 13 197 176 319 335 110 118 133 131 130 116 116 130 92 93 124 147 159
305 284 280 264 261 254 241 234 235 254 310 58 66 64 176 215 235 223 238 252 226 125 134 134 136 153 204 248 272 237 185 195 207 167 194 199 190 227 237 242 194 163 161 180 233 309 27 298 291 340 344 204 198 210 166 134 158 263 120 134 230 194 139 137 277 329 77 96 286 287 149 284 15 15 349 64 109 124 130 133 125 140 143 98 108 146 159 169
279 286 279 265 261 240 198 206 202 204 100 74 89 219 232 240 227 211 249 291 268 130 117 172 206 157 189 216 264 240 172 185 216 169 208 230 305 282 287 344 109 159 184 178 185 231 118 307 302 26 5 311 263 247 287 182 134 113 206 215 226 61 95 106 89 359 40 92 282 347 177 277 97 107 319 57 131 160 172 172 165 158 131 117 144 165 172 179
291 289 284 267 236 186 168 180 178 167 81 67 115 249 243 252 261 255 279 328 329 39 92 163 210 172 184 197 248 226 138 149 226 176 188 194 136 313 320 4 21 55 199 150 103 290 91 320 292 29 7 322 335 39 0 325 329 174 215 220 99 72 309 350 98 70 353 94 313 357 343 272 158 155 186 165 176 191 195 199 189 167 144 138 158 162 169 173
317 331 313 247 166 157 158 166 162 120 63 59 229 255 246 259 276 285 325 19 36 38 55 174 196 111 187 188 264 221 129 150 214 168 100 102 155 317 54 142 348 2 27 82 88 319 72 68 288 319 359 342 2 39 19 327 323 324 326 342 27 161 183 222 170 152 160 177 160 13 354 275 231 202 171 181 198 187 183 199 192 181 166 155 158 165 178 183
129 52 318 193 154 156 160 157 132 69 76 188 205 237 273 281 287 313 337 350 65 104 73 301 25 44 256 358 11 5 97 118 231 166 120 104 125 323 344 74 49 10 35 64 69 9 50 65 297 309 352 27 16 352 349 327 333 1 11 357 340 334 239 226 344 136 137 133 149 140 254 257 252 210 174 189 197 178 176 184 192 199 180 159 162 172 188 199
97 49 289 179 152 157 153 135 65 73 166 263 242 246 271 282 331 340 332 330 31 107 245 24 47 51 323 20 29 6 15 54 13 50 75 91 130 129 317 292 97 46 40 46 42 34 43 49 335 317 350 26 246 268 300 335 3 89 41 357 345 351 23 51 355 335 74 108 152 147 182 263 264 213 185 198 193 183 178 167 182 207 179 155 170 179 188 203
81 23 234 163 153 155 140 93 288 183 208 268 245 261 276 288 0 353 339 346 35 32 350 19 40 46 35 33 47 30 16 26 34 44 51 34 93 97 320 26 73 77 85 52 358 340 131 87 34 317 292 253 252 261 267 300 155 137 100 0 5 54 65 88 25 320 30 59 139 114 121 264 287 319 246 226 207 172 167 162 175 201 176 153 170 181 189 209
109 304 192 163 161 154 119 24 291 256 261 263 267 279 277 10 10 3 2 3 25 26 2 8 23 43 39 20 35 36 13 15 70 65 147 93 47 358 323 50 69 71 80 59 330 328 51 61 15 323 294 288 298 290 264 10 54 79 17 335 37 82 112 142 160 150 89 23 66 69 3 273 299 330 351 340 339 44 111 163 174 179 170 158 167 175 182 202
188 264 183 172 174 161 92 197 261 304 271 282 289 274 270 62 45 35 24 1 359 29 18 4 9 19 18 20 44 41 23 31 57 32 23 38 28 356 355 29 72 80 76 151 174 342 351 32 49 17 343 341 345 345 347 358 17 25 322 322 344 19 76 127 126 80 89 220 158 112 268 257 271 315 41 46 10 6 11 201 176 171 174 170 168 172 187 200
137 339 326 190 191 199 27 180 188 299 289 308 300 273 299 15 39 80 69 23 1 31 46 15 12 14 8 18 51 46 36 51 48 16 14 10 5 358 356 5 46 68 41 176 142 107 125 155 100 93 65 333 316 315 312 319 334 331 323 332 334 340 16 78 60 60 97 224 146 132 215 258 296 333 26 63 53 6 337 333 95 143 165 165 164 170 192 208
80 36 342 284 217 271 271 235 62 290 289 312 313 328 3 7 344 29 56 40 14 28 53 32 20 22 12 11 39 40 28 46 62 41 23 11 350 327 348 15 38 32 18 7 13 67 104 67 123 144 163 195 217 241 255 269 320 327 328 334 328 323 343 64 81 110 169 151 67 196 195 238 319 319 330 56 83 52 314 338 37 78 155 163 171 172 190 217
76 67 31 16 319 294 288 303 291 229 262 300 3 4 18 32 23 14 26 40 31 31 53 40 28 31 17 5 35 30 2 24 52 35 16 11 343 318 341 28 45 31 26 16 2 39 88 4 335 159 192 233 222 241 279 306 340 334 330 329 321 319 327 347 86 185 163 96 331 252 182 150 259 271 272 37 91 103 243 199 176 190 174 164 161 165 199 227
46 48 48 113 205 237 292 306 290 333 17 27 48 33 34 38 36 24 9 37 46 34 41 39 28 35 33 23 47 24 357 15 36 15 0 356 346 344 346 356 40 38 38 29 5 40 97 16 338 6 333 317 318 328 340 355 355 342 336 328 321 317 315 306 195 176 158 136 216 223 168 158 229 270 299 330 41 101 128 148 177 174 147 150 163 187 221 231
37 24 317 350 195 227 251 307 355 50 38 31 40 39 43 42 36 28 12 22 41 31 43 47 26 38 44 38 58 46 12 22 7 346 0 353 341 354 350 324 337 27 33 35 6 26 73 355 340 19 7 341 350 356 357 1 350 339 338 333 323 311 306 291 179 172 167 153 169 147 118 109 286 309 326 343 5 72 81 81 102 107 116 233 237 227 228 233
42 1 322 350 348 309 315 353 30 53 36 33 47 34 41 52 42 34 32 39 39 21 31 39 35 55 56 45 56 47 7 18 307 296 328 344 332 343 349 302 301 345 3 24 0 11 36 296 316 42 30 331 334 351 352 348 339 341 349 344 335 341 7 16 24 1 60 84 81 89 86 53 5 349 354 8 28 52 55 54 64 74 83 250 269 259 245 242
332 265 322 39 8 344 351 13 38 60 35 20 27 20 36 52 43 43 51 53 59 39 23 35 52 65 56 43 43 7 324 325 293 275 275 285 276 265 274 272 306 331 334 348 1 10 32 313 332 50 40 309 308 338 337 333 350 11 4 345 336 3 57 42 21 12 25 109 96 78 63 20 339 342 9 23 34 46 44 36 37 37 36 42 17 329 285 264
354 302 343 79 66 3 2 27 35 48 36 7 12 28 38 35 31 45 51 36 48 44 38 53 61 62 51 30 7 313 290 292 282 273 265 252 246 243 243 251 261 267 270 309 349 319 159 179 309 56 69 283 285 317 343 2 22 15 354 344 342 20 64 51 34 23 19 54 83 70 57 352 310 341 36 38 36 40 32 21 20 13 17 28 26 15 352 305